STARLINK-1118 (44948 NORAD) Tracking and Keplerian Element Data

This shows tracking and keplerian element data for the satellite.

Feedback or suggestion? Click here.




ElementValue
Catalog44948
NameSTARLINK-1118
Epoch Orbit1367
Epoch Day93.11544131
Epoch Year2020
RAAN320.639
Inclination52.9916
Eccentricity0.0006458
Argument of Perigee255.897
Mean Anonmoly104.1355
Mean Motion16.33333815
Decay Rate0.10026385
L11 44948U 20001AL 20093.11544131 .10026385 12155-4 15322-2 0 9994
L22 44948 52.9916 320.6390 0006458 255.8970 104.1355 16.33333815 13677

Live tracking and technical data element details for STARLINK-1118 (NORAD 44948). STARLINK-1118 can be tracked NOW for your location showing map with azimuth and elevation plus other details from your city location.

Track the satellite on the map from your city or location and see movement details for azimuth, elevation, latitude, longitude, range, height, and movement on the map or in text.







IsCatalogInMostPopularTable: catalog: 44948, numindb: 23
Update: records affected: 1



GetName: 44948 STARLINK-1118

Hit Count: updated at: Sun, 05 Apr 2020 19:20:12 GMT